Home   Weather   Kennebunk   Past weeks

Flag for USA Past Weather in Kennebunk, Maine, USA — Yesterday and Last 2 Weeks

Now
27 °F

Clear.


Feels Like: 27 °F
Forecast: 34 / 39 °F
Wind: No wind

Location: Sanford Municipal

Current Time: Jan 22, 2017 at 3:15:35 am

Latest Report: Jan 22, 2017 at 1:56 am


Visibility: 10 mi

Pressure: 29.76 "Hg

Humidity: 96%

Dew Point: 26 °F

Location of KennebunkLocation

Past Weather in Kennebunk — Graph

°F

Kennebunk Temperature Yesterday

Maximum temperature yesterday: 44 °F (at 2:56 pm)
Minimum temperature yesterday: 27 °F (at 10:56 pm)
Average temperature yesterday: 35 °F

High & Low Weather Summary for the Past Weeks

 TemperatureHumidityPressure
High55 °F (Jan 12, 2:56 pm)100% (Jan 12, 4:09 am)30.72 "Hg (Jan 12, 4:09 am)
Low-6 °F (Jan 10, 2:56 am)31% (Jan 14, 1:56 pm)29.75 "Hg (Jan 21, 2:56 pm)
Average27 °F76%30.21 "Hg
* Reported Jan 7 1:56 am — Jan 22 1:56 am, Kennebunk, Weather by CustomWeather, © 2017

Note: Actual official high and low records may vary slightly from our data, if they occured in-between our weather recording intervals... More about our weather records

Advertising

Kennebunk Weather History for the Previous 24 Hours

Scroll right to see more
 ConditionsComfort  
Time TempWeatherWind HumidityBarometerVisibility
1:56 am
Sun, Jan 22
27 °FClear.No wind96%29.76 "Hg10 mi
12:56 am26 °FClear.No wind96%29.76 "Hg9 mi
11:56 pm
Sat, Jan 21
27 °FPassing clouds.No wind100%29.77 "Hg10 mi
10:56 pm27 °FClear.3 mph96%29.77 "Hg10 mi
9:56 pm28 °FClear.No wind96%29.78 "Hg8 mi
8:56 pm30 °FPassing clouds.3 mph100%29.78 "Hg10 mi
7:56 pm31 °FClear.3 mph96%29.77 "Hg10 mi
6:56 pm35 °FPassing clouds.No wind92%29.77 "Hg10 mi
5:56 pm38 °FOvercast.No wind90%29.76 "Hg10 mi
4:56 pm39 °FOvercast.3 mph86%29.75 "Hg10 mi
3:56 pm44 °FMore clouds than sun.No wind73%29.75 "Hg10 mi
2:56 pm44 °FOvercast.3 mph71%29.75 "Hg10 mi
1:56 pm42 °FMostly cloudy.5 mph73%29.75 "Hg10 mi
12:56 pm40 °FOvercast.No wind77%29.76 "Hg10 mi
11:56 am39 °FOvercast.5 mph79%29.79 "Hg10 mi
10:56 am38 °FMostly cloudy.3 mph83%29.82 "Hg10 mi
9:56 am39 °FOvercast.No wind82%29.85 "Hg10 mi
8:56 am37 °FOvercast.5 mph86%29.86 "Hg10 mi
7:56 am35 °FOvercast.7 mph88%29.85 "Hg10 mi
6:56 am35 °FOvercast.5 mph85%29.85 "Hg10 mi
5:56 am34 °FOvercast.No wind88%29.87 "Hg10 mi
4:56 am34 °FMostly cloudy.3 mph88%29.88 "Hg10 mi
3:56 am34 °FOvercast.5 mph88%29.90 "Hg10 mi
Weather by CustomWeather, © 2017

See weather overviewHow to use our weather pages